Regional Weather Roundup
Issued by NWS State College, PA

Home | Current Version | Previous Version | Text Only | Print | Product List | Glossary On
Versions: 1 2 3 4 5 6 7 8 9 10 11 12 13 14 15 16 17 18 19 20 21 22 23 24 25 26 27 28 29 30 31 32 33 34 35 36 37 38 39 40 41 42 43 44 45 46 47 48 49 50
993
ASUS41 KCTP 291910
RWRCTP

REGIONAL WEATHER ROUNDUP
NATIONAL WEATHER SERVICE STATE COLLEGE PA
300 PM EDT WED JUN 29 2016

Note: "fair" indicates few or no clouds below 12,000 feet with no
significant weather and/or obstructions to visibility.

* = STATION THAT DOES NOT REPORT PRECIPITATION /E.G. RAIN...SNOW...ETC/
    THUNDER OR FOG.

PAZ002>004-007>009-013>016-020>023-029>032-292000-
WESTERN PENNSYLVANIA

CITY           SKY/WX    TMP DP  RH WIND       PRES   REMARKS
ERIE           CLOUDY    71  53  52 W13       30.05S
MEADVILLE      CLOUDY    66  49  54 N7        30.06S
FRANKLIN*      CLOUDY    66  52  59 NW5       30.08R
NEW CASTLE     MOCLDY    71  53  52 NW9       30.06F
BEAVER COUNTY  CLOUDY    70  52  52 NW5       30.06F
BUTLER*        PTSUNNY   72  52  49 W5        30.08F
PITTSBURGH INT PTSUNNY   70  50  49 N6        30.06S
PITTSBURGH     CLOUDY    68  51  54 VRB3      30.05F
INDIANA*       PTSUNNY   68  55  64 VRB6G14   30.08F
LATROBE        PTSUNNY   66  55  68 N9        30.08S
WASHINGTON CO* CLOUDY    70  52  52 NW8       30.08R
$$

PAZ004>006-010>012-017>019-024>028-033>037-041-042-045-046-049>053-292000-
CENTRAL PENNSYLVANIA

CITY           SKY/WX    TMP DP  RH WIND       PRES   REMARKS
BRADFORD       CLOUDY    65  51  60 NW8       30.05S
DUBOIS         CLOUDY    68  52  56 NW9       30.04F
CLEARFIELD     CLOUDY    69  52  54 N8        30.04R
JOHNSTOWN      CLOUDY    60  49  66 W8        30.08S
ALTOONA        CLOUDY    69  53  56 W10       30.05F
STATE COLLEGE  CLOUDY    72  54  53 SW7       30.01F
WILLIAMSPORT   CLOUDY    74  53  48 NW9       29.95F
SELINSGROVE    PTSUNNY   76  57  51 N6        29.96S
FT INDIANTOWN  MOSUNNY   78  56  46 N9        29.95S
CAPITAL CITY   CLOUDY    77  54  44 NW9G18    29.96R
HARRISBURG     MOSUNNY   78  56  46 NW14G21   29.94S
YORK           PTSUNNY   76  57  51 W10       29.96R
$$

PAZ038>040-043-044-047-048-054-055-060>062-067>071-292000-
EASTERN PENNSYLVANIA

CITY           SKY/WX    TMP DP  RH WIND       PRES   REMARKS
SCRANTON       PTSUNNY   73  56  54 NW6       29.95S
MOUNT POCONO   CLOUDY    69  54  58 NW10      29.97R
ALLENTOWN      PTSUNNY   78  58  49 NW9       29.91S
QUAKERTOWN*    PTCLDY    81  59  47 CALM      29.92S
READING        MOSUNNY   81  52  36 NW10      29.92R
LANCASTER      MOSUNNY   78  58  49 W13       29.94S
COATESVILLE    CLEAR     77  57  50 W13       29.95S
POTTSTOWN      PTSUNNY   78  57  48 NW10      29.93R
BLUE BELL      MOSUNNY   81  61  50 CALM      29.90R
DOYLESTOWN     MOSUNNY   82  55  39 NW9       29.90S
WILLOW GROVE   NOT AVBL
NORTH PHILA    SUNNY     84  60  44 MISG      29.90R
PHILADELPHIA   MOSUNNY   84  58  40 NW12      29.89R
$$




USA.gov is the U.S. government's official web portal to all federal, state and local government web resources and services.